Location: Newark
(38.7000°N, 9.1833°W)
Time: 15:25:49
(UTC+00:00)

Envisat - Pass Details

Date: 26 October 2019
Orbit: 764 x 766 km, 98.1° (Epoch: 22 November)

Event Time Altitude Azimuth Distance (km) Brightness Sun altitude
Rises 18:44:23 0° 168° (SSE) 3,217 6.2 -12.4°
Reaches altitude 10° 18:46:41 10° 169° (S) 2,295 5.4 -12.8°
Maximum altitude 18:51:45 83° 257° (WSW) 777 3.1 -13.8°
Drops below altitude 10° 18:56:51 10° 346° (NNW) 2,310 5.6 -14.8°
Sets 18:59:10 0° 347° (NNW) 3,240 6.4 -15.2°
